www.pogodaiklimat.ru

Погода и климат >> Архив погоды >> Россия >> Иркутская область >> Жигалово


АРХИВ ПОГОДЫ в Жигалове

Время (UTC), дата Ветер
(напр.,м/с)
 
Видим.   Явления Облачность Т
(С)
Тd
(С)
f
(%)
Тe
(С)
Тes
(С)
Комфортность P
(гПа)
Po
(гПа)
Тmin
(С)
Tmax
(С)
R
(мм)
R24
(мм)
S
(см)
15 11.04 штиль 0 н/о ясно -5.3 -11.4 62 -6 -6 1020.1 967.3
18 11.04 штиль 0 н/о ясно -7.6 -11.8 72 -8 -8 1020.8 967.5
21 11.04 штиль 0 н/о ясно -8.8 -11.6 80 -9 -9 1021.5 967.9
00 12.04 СВ 1 50 км 8/0
[Ci fib]
-5.6 -12.1 60 -8 -6 1021.1 968.2 -9.3 0
03 12.04 З 5 50 км 10/5 600 м
[Cb cap Cs]
0.0 -13.7 35 -5 -3 1018.8 967.1
06 12.04 ЮЗ 3 10 км 10/10 600 м
[Cb cap]
+0.8 -12.7 36 -3 -3 1017.2 965.7
09 12.04 СЗ 4 10 км 10/10 600 м
[Cb cap]
+1.1 -11.3 39 -3 -3 1016.5 965.0
12 12.04 СЗ 4 10 км {ливн. осадки} 6/6 600 м
[Cb cap]
-1.2 -8.5 58 -6 -6 1018.4 966.4 +1.5 0.0
15 12.04 З 4 н/о 6/6 600 м
[Cb cap]
-3.2 -8.3 68 -9 -9 1021.3 968.8
18 12.04 Ю 2 н/о 3/3 600 м
[Cb cap]
-5.0 -8.7 75 -9 -9 1023.2 970.3
21 12.04 ЮВ 1 н/о ясно -8.5 -10.3 87 -11 -11 1024.5 970.8
00 13.04 С 1 50 км 3/0
[Ci fib]
-6.1 -9.4 77 -8 -6 1024.3 971.1 -9.2 0
03 13.04 ЮВ 3 50 км 10/5 1000 м
[Sc Cs]
-1.4 -9.9 52 -6 -3 1020.5 968.4
06 13.04 ЮВ 4 10 км слаб. ливневой снег 10/10 600 м
[Cb cap]
-2.1 -5.5 77 -8 -8 1016.9 964.9
09 13.04 ЮВ 1 10 км слаб. ливневой снег 10/10 600 м
[Cb cap]
-0.9 -2.4 90 -3 -3 1011.8 960.3
12 13.04 Ю 1 10 км {ливн. осадки} 10/10 1000 м
[Cb cap]
-0.4 -2.3 87 -2 -2 1008.5 957.2 +0.1 3
15 13.04 СВ 1 н/о 10/8 600 м
[Cb cap Ac und]
0.0 -2.0 86 -2 -2 1007.0 955.9
18 13.04 СВ 2 н/о 10/5 600 м
[Cb cap Ac und]
-0.2 -2.6 84 -4 -4 1005.5 954.5
21 13.04 штиль 0 н/о 10/4 600 м
[Cb cap Ac und]
-2.5 -3.8 91 -4 -4 1005.2 953.7
00 14.04 С 1 50 км 10/3 1000 м
[Sc Ac trans Ci fib]
-2.2 -3.6 90 -4 -4 1005.3 953.9 -3.5 2
03 14.04 З 1 10 км 10/9 1000 м
[Cb cap Ci fib]
+4.5 -0.4 70 +3 +4 1003.5 953.4
06 14.04 СЗ 6 10 км 10/8 600 м
[Cb cap Ac und]
+8.3 +1.6 63 +5 +5 1003.0 953.6
09 14.04 З 4
{14}
10 км слаб. ливневой дождь 10/10 600 м
[Cb cap]
+4.5 +1.3 80 0 0 1005.6 955.4
12 14.04 ЮЗ 2
{12}
10 км в посл. час ливневой дождь 10/10 600 м
[Cb cap]
+2.8 -0.5 79 -0 -0 1006.9 956.3 +9.6 1
15 14.04 З 4 н/о 10/10 600 м
[Cb cap]
+2.1 -2.7 71 -3 -3 1007.5 956.7
18 14.04 З 3
{11}
н/о 10/10 600 м
[Cb cap]
+1.1 -5.1 63 -3 -3 1008.9 957.9
21 14.04 З 4
{10}
н/о 10/10 600 м
[Cb cap]
-0.7 -5.5 70 -6 -6 1009.6 958.2
00 15.04 ЮЗ 3 10 км 10/10 1000 м
[Cb cap]
-1.5 -6.6 68 -6 -6 1009.4 957.9 -1.5 0
03 15.04 ЮЗ 2 10 км слаб. ливневой снег 10/10 600 м
[Cb cap]
-1.5 -5.0 77 -5 -5 1008.2 956.8
06 15.04 СЗ 6-11
{13}
10 км слаб. ливневой дождь со снегом 10/10 600 м
[Cb cap]
-1.2 -4.2 80 -8 -8 1008.1 956.7
09 15.04 З 5
{13}
10 км в посл. час ливневой снег 8/8 600 м
[Cb cap]
+0.6 -6.8 58 -5 -4 1008.8 957.7
12 15.04 СЗ 5
{11}
50 км {ливн. осадки} 4/4 600 м
[Cb cap]
-0.6 -13.1 38 -6 -6 1011.1 959.6 +3.1 0.1
15 15.04 В 1 н/о ясно -4.8 -11.2 61 -7 -7 1012.4 960.1
18 15.04 СВ 1 н/о 10/0
[Ci fib]
-6.6 -11.0 71 -9 -9 1012.3 959.7
21 15.04 В 2 н/о 10/3 600 м
[Cb cap Ci fib]
-8.2 -11.6 76 -13 -13 1011.7 958.8
00 16.04 В 1 50 км 10/0
[Ac trans Ci fib]
-7.5 -12.1 70 -10 -8 1010.9 958.1 -8.7 0
03 16.04 СВ 1 50 км 10/0
[Ac lent Cs]
-1.3 -12.2 43 -3 +3 1006.8 955.5
06 16.04 СВ 1 50 км 10/5 600 м
[Cb cap Cs]
+2.6 -14.7 27 +2 +7 1004.3 953.7
09 16.04 штиль 0 10 км 10/8 600 м
[Cb cap Ci fib]
+2.9 -15.2 25 +3 +4 1004.5 954.0
12 16.04 СЗ 2 10 км 8/8 600 м
[Cb cap]
+1.6 -12.7 34 -1 -1 1007.0 956.1 +3.5
15 16.04 З 1 н/о 10/10 600 м
[Cb cap]
-1.2 -10.2 50 -3 -3 1009.7 958.2
18 16.04 ЮВ 1 н/о 3/3 600 м
[Cb cap]
-3.3 -9.5 62 -5 -5 1012.2 960.2
21 16.04 З 1 н/о 3/3 600 м
[Cb cap]
-6.0 -10.1 73 -8 -8 1015.7 963.0
00 17.04 З 2 50 км 1/1 600 м
[Cb cap]
-3.9 -10.4 61 -8 -6 1018.5 966.0 -6.6 0
03 17.04 З 2 50 км 3/3 1000 м
[Cu hum]
+2.9 -14.4 27 +1 +8 1017.6 966.4
06 17.04 Ю 2 50 км 3/3 1000 м
[Cu hum]
+4.9 -14.6 23 +3 +11 опасность
простуды
1016.3 965.5
09 17.04 Ю 1 50 км 4/4 1000 м
[Cu hum]
+6.9 -15.0 19 +7 +10 1015.3 964.9
12 17.04 ЮЗ 2 50 км 1/1 1000 м
[Cu hum]
+4.2 -13.7 26 +3 +3 1015.7 964.8 +7.9
15 17.04 штиль 0 н/о ясно -3.4 -9.3 64 -4 -4 1017.6 965.3
18 17.04 ЮВ 1 н/о ясно -5.4 -9.2 75 -8 -8 1018.1 965.4
21 17.04 штиль 0 н/о ясно -8.0 -10.3 83 -9 -9 1017.2 964.0
00 18.04 В 2 50 км 8/0
[Ci fib]
-3.6 -9.9 62 -7 -5 1015.4 963.1 -8.5 0
03 18.04 В 4 50 км 4/0
[Ci fib]
+5.8 -10.3 30 +3 +9 1010.1 959.8
06 18.04 ЮВ 3 50 км 4/0
[Ci fib]
+12.3 -9.9 20 +11 +20 1004.2 955.3
09 18.04 Ю 3 50 км 10/0
[Cs]
+14.1 -13.5 13 +14 +17 998.6 950.3
12 18.04 В 4 50 км 10/0
[Ac lent Ci sp]
+10.6 -9.5 23 +9 +9 996.4 947.7 +14.6

 

Местоположение метеостанции Жигалово (Иркутская область, Россия): широта 54.80 долгота 105.10 высота над уровнем моря 419 м.

В архиве по умолчанию представлена погода в Жигалове за последнюю неделю. Архивные данные за месяц целиком и за предыдущие месяцы, начиная с января 2011 года, Вы можете получить, выбрав интересующий диапазон дат из раскрывающегося списка и нажав кнопку "Ввод!".


*Определитесь, кто Вы:
робот инопланетянин человек

Внимание! Время в таблицах - всемирное. Для получения местного времени необходимо прибавить поправку, которая равна 8 ч.

Смотрите также архив погоды в соседних городах и на ближайших метеорологических станциях:

Погода в Качуге (Иркутская область, Россия) (106 км)
Погода в Тырке (Иркутская область, Россия) (127 км)
Погода в Орлинге (Иркутская область, Россия) (146 км)
Погода в Балаганске (Иркутская область, Россия) (162 км)
Погода в Караме (Иркутская область, Россия) (164 км)
Погода в Баяндае (Иркутская область, Россия) (191 км)
Погода в Заярске (Иркутская область, Россия) (213 км)
Погода в Солнечной (Иркутская область, Россия) (218 км)
Погода в Заларях (Иркутская область, Россия) (219 км)
Погода в Усть-Ордынском (Иркутская область, Россия) (223 км)

Пояснения к столбцам:

Ветер - указаны скорость ветра в м/с - средняя за 10 мин, порывы в срок и между сроками (в фигурных скобках) и направление, откуда дует ветер: С - северный, СВ - северо-восточный, В - восточный, ЮВ - юго-восточный, Ю - южный, ЮЗ - юго-западный, З - западный, СЗ - северо-западный.
Видимость - горизонтальная дальность видимости в метрах или километрах. При видимости от 1 до 10 км при отсутствии осадков обычно наблюдается дымка, при ухудшении видимости до 1 км и менее - туман. В сухую погоду видимость может ухудшаться дымом, пылью или мглою.
Явления - указаны атмосферные явления, наблюдавшиеся в срок или в последний час перед сроком; фигурными скобками обозначены явления, наблюдавшиеся между сроками (за 1-3 часа до срока); квадратными скобками обозначены град или гололедные отложения с указанием их диаметра в мм.
Облачность - указаны через наклонную черту общая и нижняя облачность в баллах и высота нижней границы облаков в метрах; квадратными скобками обозначены формы облаков: Ci - перистые, Cs - перисто-слоистые, Cc - перисто-кучевые, Ac - высококучевые, As - высокослоистые, Sc - слоисто-кучевые, Ns - слоисто-дождевые, Cu - кучевые, Cb - кучево-дождевые. Подробнее классификацию облаков см. в Атласе облаков (PDF).
T - Температура воздуха - температура, измеренная на высоте 2 м над землей.
Td - Температура точки росы - температура, при понижении до которой содержащийся в воздухе водяной пар достигнет насыщения.
f - Относительная влажность воздуха - влажноcть воздуха, измеренная на высоте 2 м над землей.
Te - Эффективная температура - температура, которую ощущает одетый по сезону человек в тени. Характеристика душности погоды. При расчете учитывается влияние влажности воздуха и скорости ветра на теплоощущения человека.
Tes - Эффективная температура на солнце - температура, которую ощущает человек, с поправкой на солнечный нагрев. Характеристика знойности погоды. Зависит от высоты солнца над горизонтом, облачности и скорости ветра. Ночью, в пасмурную погоду, а также при ветре 12 м/с и более поправка равна нулю.
P - Атмосферное давление - приведенное к уровню моря атмосферное давление.
Po - Атмосферное давление - измеренное на уровне метеостанции атмосферное давление.
Tmin - Минимальная температура - минимум температуры воздуха на высоте 2 м над землей.
Tmax - Максимальная температура - максимум температуры воздуха на высоте 2 м над землей.
R - Количество осадков - Количество выпавших осадков за период времени, мм. При наведении курсора мыши на число - период времени, за который выпало указанное количество осадков.
R24 - Количество осадков - Количество выпавших осадков за 24 часа, мм.
S - Снежный покров - Высота снежного покрова, см. При наведении курсора мыши на число - состояние снежного покрова и степень покрытия местности в баллах.